Location: Asheville, NC
(35.6000°N, 82.5500°W)
Time: 19:15:42
(UTC-04:00)

SEEDS - Pass Details

Date: 07 January 2018
Orbit: 587 x 605 km, 97.5° (Epoch: 21 April)

Event Time Altitude Azimuth Distance (km) Brightness Sun altitude
Rises 18:01:30 0° 128° (SE) 2,846 ? -6.1°
Reaches altitude 10° 18:04:20 10° 107° (ESE) 1,946 ? -6.6°
Maximum altitude 18:06:59 17° 68° (ENE) 1,566 ? -7.1°
Drops below altitude 10° 18:09:39 10° 29° (NNE) 1,950 ? -7.6°
Sets 18:12:29 0° 9° (N) 2,855 ? -8.1°
